Helicity
46 37 46 84 118 142 101 79 95 52 58 90 106 128 122 201 209 209 92 113 128 27 -1 12 49 61 56 68 62 60 56 54 48 42 31 32 27 30 30 26 28 43 52 60 72 81 68 48 43
64 64 98 103 170 148 137 105 54 78 102 83 112 107 117 126 164 162 174 182 155 32 2 3 54 65 57 76 75 77 71 61 51 45 41 24 23 26 22 22 43 53 68 85 78 86 59 49 43
85 115 109 128 157 152 157 99 108 110 121 108 95 139 154 153 152 195 139 170 149 -8 -3 11 40 58 57 61 66 78 71 60 52 44 28 25 19 33 22 17 45 60 73 89 72 67 61 43 46
116 122 133 154 124 133 154 67 84 102 114 122 106 112 95 138 141 204 160 160 126 -3 -12 33 28 47 58 51 71 67 70 59 48 42 17 15 33 31 24 39 62 84 96 80 79 57 53 51 49
162 138 150 160 136 133 113 104 91 76 114 131 126 106 94 157 154 176 210 190 185 103 -5 10 12 42 55 54 76 66 59 59 44 32 26 44 49 46 33 71 81 101 93 74 70 64 47 52 50
170 155 146 117 131 125 110 92 107 103 111 118 124 105 87 84 190 230 214 194 190 187 177 24 9 12 29 54 61 58 58 50 45 35 28 35 61 71 70 77 92 89 87 67 63 65 50 42 43
148 161 144 142 132 110 113 108 110 131 125 125 132 120 90 65 157 216 248 210 199 204 187 159 52 19 16 25 37 51 58 54 45 37 26 30 55 69 81 96 90 90 78 67 64 53 50 43 40
160 180 153 160 119 134 112 111 133 124 139 133 128 115 104 118 147 166 179 179 193 185 192 167 135 73 34 25 28 40 55 56 59 55 47 56 69 74 74 90 89 96 87 69 68 56 45 50 48
127 169 147 148 149 163 118 98 102 106 102 120 126 127 125 130 141 146 173 195 215 213 202 193 189 151 99 44 37 22 48 72 78 87 66 65 47 44 71 54 91 91 93 79 55 58 61 65 57
167 158 159 173 162 155 117 125 115 101 83 80 79 84 91 97 107 132 132 164 200 220 215 184 198 177 140 82 56 32 24 30 61 68 65 44 46 53 43 83 94 86 84 86 71 70 72 22 37
145 168 136 137 123 126 105 81 83 90 78 55 76 98 94 82 94 85 100 103 132 157 186 164 174 162 156 129 105 77 68 59 48 33 65 64 75 88 87 93 82 71 70 60 66 72 35 21 30
140 131 134 120 103 94 82 86 63 54 48 69 57 63 75 70 72 77 88 105 106 117 147 151 152 154 156 147 124 98 91 77 83 59 39 67 126 111 90 107 103 84 70 64 53 50 43 34 32
115 105 102 99 90 79 63 49 44 35 38 34 42 58 60 72 83 87 82 90 94 111 131 145 129 140 142 146 153 138 109 101 85 81 67 83 91 79 106 113 116 96 77 69 74 56 57 47 40
101 90 83 74 83 69 62 55 68 43 23 32 41 59 60 73 77 92 92 81 102 106 118 131 139 126 143 146 153 166 149 110 104 105 97 89 102 99 107 102 93 91 90 81 76 81 64 59 54
92 87 68 51 69 69 79 39 44 58 90 51 41 49 63 69 78 62 78 81 89 107 122 137 156 148 136 138 135 140 147 135 121 113 98 103 119 116 124 106 89 87 95 95 89 80 92 81 66
60 34 69 54 77 82 81 90 66 156 114 89 72 48 57 60 54 59 54 56 60 77 95 115 148 165 162 152 148 145 132 136 139 125 137 112 125 105 112 121 94 87 97 105 103 107 90 91 89
82 108 86 45 66 90 103 108 126 86 106 71 79 94 80 64 59 44 41 43 65 67 72 84 105 143 177 183 173 173 164 164 152 151 161 119 142 137 141 134 113 104 101 108 110 105 103 92 90
65 73 46 41 66 76 76 40 42 36 35 69 83 107 99 121 113 113 86 81 69 75 80 90 107 118 142 199 228 211 215 198 189 169 173 135 160 162 173 176 126 137 117 116 123 109 119 100 86
60 67 62 68 70 54 52 63 55 56 63 59 78 111 141 185 186 134 106 109 104 99 104 103 116 126 169 197 231 276 266 257 237 208 157 123 161 179 215 183 165 171 134 126 133 132 120 136 114
62 66 51 57 46 42 71 93 49 62 78 65 83 134 169 164 168 145 115 90 86 102 109 118 121 131 164 212 233 248 297 311 295 238 201 175 195 214 227 217 222 237 145 120 143 155 156 143 149
31 37 65 72 82 32 26 27 18 60 70 84 102 88 113 90 78 95 90 88 81 86 98 113 112 116 133 153 204 247 253 289 326 357 303 242 193 198 204 225 273 237 196 192 177 193 172 197 178
71 50 51 55 58 62 48 66 49 52 17 6 38 52 33 39 43 38 50 64 69 75 77 92 90 89 103 116 176 177 261 314 315 329 346 289 237 210 219 216 275 284 267 238 233 257 223 208 217
65 56 32 11 8 8 22 37 21 53 39 37 22 8 22 45 69 82 89 77 64 77 76 73 107 129 108 116 124 158 173 224 254 270 267 307 296 226 234 251 241 255 290 235 236 257 227 280 254
18 7 6 8 11 3 38 27 13 52 32 1 -18 14 27 65 106 113 108 85 56 72 77 70 96 120 145 146 135 122 126 145 187 219 285 299 315 312 236 225 230 231 274 260 279 282 243 232 261
17 10 -18 -21 -5 17 38 12 -14 -1 17 -24 -10 10 20 66 100 121 146 109 55 40 66 67 92 100 108 129 154 130 124 134 123 139 193 226 275 313 275 247 232 280 261 250 203 237 284 247 240
18 10 6 12 9 14 58 -5 28 62 -19 -12 -6 -7 7 49 88 127 116 59 70 74 62 72 63 56 64 94 121 132 130 170 149 120 140 158 177 215 205 245 214 206 221 243 219 234 225 230 267
27 7 -19 1 3 -5 23 26 24 -50 -34 -3 37 74 1 -10 73 97 93 45 29 20 29 42 54 66 78 76 100 109 122 121 136 98 92 118 133 160 147 153 180 180 186 206 213 209 179 209 270
27 4 24 46 71 73 117 101 124 44 183 152 73 49 60 40 49 61 65 82 39 20 19 22 36 58 76 73 72 103 110 104 103 111 98 81 84 107 146 136 136 160 166 155 180 208 210 191 217
46 36 34 32 98 161 160 117 121 116 151 121 192 162 84 21 28 -1 -21 9 46 -1 -38 -50 -72 -58 23 57 75 91 100 90 83 97 93 90 84 55 109 133 157 141 161 176 201 216 214 216 230
38 48 41 106 134 172 145 167 79 132 169 132 229 165 79 44 37 21 8 -24 -6 -27 -12 -16 -52 -33 -7 -3 27 87 91 53 60 75 68 71 72 70 57 84 104 162 176 152 162 172 233 201 210
Wind_Speed
27 23 21 19 32 40 39 38 33 27 28 29 31 30 29 35 35 38 35 36 44 23 5 2 3 2 3 5 7 9 12 15 18 20 21 23 27 31 34 38 36 35 39 42 41 40 41 44 45
26 22 22 29 43 41 39 36 33 28 32 33 31 33 32 31 32 34 37 49 46 25 7 3 3 4 3 2 4 5 7 10 14 17 20 21 24 27 29 33 34 35 35 34 35 36 38 39 43
23 26 30 37 47 49 46 38 32 32 32 32 28 33 34 38 33 39 47 49 46 12 9 9 5 5 4 2 2 4 5 6 9 13 17 23 24 24 27 25 29 32 31 32 34 34 35 38 38
26 29 34 47 51 48 47 36 33 35 34 32 31 30 30 32 34 42 44 42 38 13 7 7 14 6 6 4 3 3 3 5 6 8 13 17 22 23 22 22 25 28 30 30 31 31 32 34 36
27 34 48 54 53 47 42 36 36 37 37 36 34 35 32 30 32 38 39 38 35 30 7 5 12 12 6 9 4 4 6 4 4 4 6 9 16 19 20 20 21 24 26 27 28 28 28 30 32
31 37 51 61 54 48 43 38 41 41 40 39 38 35 33 25 35 40 39 36 35 33 31 17 5 4 6 8 10 8 6 8 7 7 5 4 8 12 16 19 19 20 22 23 24 25 25 25 28
34 36 50 51 54 53 46 41 44 46 44 43 41 42 36 33 38 42 41 36 34 33 33 33 26 10 13 10 14 14 12 10 9 9 8 5 4 6 10 14 16 16 18 20 22 21 21 22 23
35 37 44 46 53 56 43 43 45 48 51 48 44 49 45 40 45 45 43 38 34 32 31 33 33 34 25 26 21 14 13 14 11 11 12 9 5 2 5 8 10 13 14 16 17 19 18 19 20
30 43 52 46 45 46 40 47 46 46 56 53 50 53 47 51 52 52 50 46 43 40 38 38 38 39 37 27 24 13 12 12 15 14 13 13 9 6 1 3 7 9 11 12 14 15 16 17 17
35 46 48 42 40 42 40 47 51 56 57 61 63 63 62 61 60 63 60 60 55 51 47 44 42 42 41 35 27 19 14 11 15 18 19 22 20 12 10 7 3 6 8 9 11 12 13 15 14
37 48 43 43 43 45 49 53 53 61 73 69 70 69 68 71 75 73 71 66 66 61 59 53 50 47 44 41 34 28 23 17 14 12 20 14 21 17 13 14 9 7 8 8 7 9 9 15 12
42 40 42 44 45 50 55 54 61 67 73 68 71 75 80 83 82 79 80 79 75 71 68 63 58 54 51 47 42 36 30 24 19 17 18 11 20 15 12 14 15 15 12 9 8 9 11 15 15
43 42 44 48 53 59 62 69 72 73 72 75 77 78 81 84 87 87 84 81 79 83 78 74 66 62 57 54 51 48 40 33 26 23 21 17 15 13 16 14 14 17 17 15 14 16 14 14 16
39 43 49 52 56 60 69 75 68 58 57 67 71 75 79 85 89 90 90 91 89 89 89 81 77 70 64 60 57 54 52 45 36 31 27 24 20 18 17 16 15 15 19 19 19 16 16 15 17
41 53 55 56 55 58 64 79 73 66 64 67 69 74 75 81 84 86 87 89 87 86 87 87 82 76 70 65 61 57 54 53 48 41 34 31 27 24 23 23 19 18 18 19 22 23 20 19 19
49 52 62 52 55 55 55 85 57 57 67 80 86 89 91 89 91 93 92 92 90 89 90 89 84 81 76 70 65 61 58 56 54 49 44 38 34 33 30 29 26 24 22 21 22 24 26 26 23
50 63 65 68 56 62 61 86 66 73 93 95 89 88 91 92 91 92 92 92 92 89 87 87 86 85 83 78 72 67 64 61 59 56 51 45 43 41 38 36 34 30 28 25 22 25 28 31 30
56 61 62 68 57 67 82 99 94 84 87 91 88 85 76 79 82 84 86 86 89 88 87 86 83 84 82 82 79 75 71 66 61 57 54 51 48 46 47 43 39 36 34 31 26 26 30 31 32
46 52 63 65 65 71 78 95 94 89 88 87 79 66 68 80 84 82 82 87 88 90 91 89 88 83 81 82 82 83 82 76 70 64 61 58 57 52 52 50 46 42 39 37 32 31 29 28 30
48 58 65 66 53 73 83 99 92 78 70 60 55 64 78 88 88 85 84 84 87 90 91 93 92 88 84 82 83 82 83 83 79 73 68 65 62 62 58 56 53 48 45 41 38 36 34 33 28
51 59 64 65 69 70 75 82 61 48 49 47 54 67 81 89 92 91 89 88 87 89 90 92 92 89 86 83 81 81 82 83 84 82 76 71 65 65 66 61 58 56 54 52 43 43 38 37 35
58 48 55 58 63 66 57 70 56 48 48 50 62 80 89 93 95 94 92 91 88 88 86 89 89 88 84 80 83 85 89 93 89 86 84 79 72 69 68 68 65 61 59 58 54 49 45 42 45
48 41 46 54 56 61 44 48 47 42 49 58 78 89 93 95 94 94 92 89 87 85 82 81 81 82 81 77 81 82 87 88 85 85 86 86 82 78 73 72 69 68 65 61 57 55 54 51 51
45 52 50 47 43 47 38 41 50 43 53 75 88 92 90 88 87 88 89 87 82 75 72 69 69 74 74 73 75 80 82 82 83 86 88 87 83 82 80 74 74 72 70 63 61 57 58 58 59
34 43 43 40 39 47 37 47 53 53 57 82 91 88 83 80 80 81 83 81 75 66 61 59 62 66 65 67 70 72 76 77 80 82 86 87 86 86 86 80 79 74 70 67 63 60 61 62 57
30 34 39 41 43 48 36 41 39 46 70 83 82 75 74 72 72 73 74 67 65 63 61 55 52 53 56 61 67 70 71 73 77 80 81 87 91 90 85 87 84 81 75 71 67 66 59 59 59
21 25 31 34 32 41 3 26 21 21 55 55 50 59 65 66 68 67 64 55 50 41 44 46 46 45 47 54 60 67 70 73 76 78 81 85 89 92 89 87 89 85 80 75 71 72 70 65 60
33 27 27 29 24 23 25 22 19 26 31 29 27 24 26 24 24 26 34 43 45 44 48 41 39 36 40 46 54 58 63 66 70 75 81 85 87 90 93 88 87 87 84 81 77 75 72 69 67
30 27 28 27 27 27 22 20 12 18 22 25 20 14 13 19 22 24 24 29 30 31 36 44 46 31 14 16 26 44 53 60 66 69 70 74 79 80 86 86 83 85 85 80 77 75 73 75 72
25 24 23 26 28 24 25 20 7 12 16 15 9 10 11 12 10 13 22 33 37 39 41 43 40 11 10 23 16 31 37 46 55 62 69 72 75 73 76 78 80 82 82 78 81 79 74 77 75
Wind_Direction
302 301 298 292 281 285 281 288 296 300 295 293 294 291 289 284 278 278 309 310 299 313 346 274 248 297 345 8 23 36 53 60 57 59 54 57 64 72 77 81 68 62 69 73 73 71 73 77 77
296 294 293 284 277 276 282 285 285 294 297 294 289 291 287 285 296 300 296 280 276 300 85 125 216 242 270 31 29 7 12 33 47 58 66 64 69 72 76 74 70 68 67 62 62 66 70 72 78
292 290 277 276 274 273 279 284 283 289 296 295 285 290 287 283 296 297 292 280 267 342 108 116 151 219 240 247 14 44 10 2 26 48 68 82 79 72 80 61 66 67 64 61 61 63 68 72 73
282 281 286 273 271 277 281 285 283 282 287 295 292 285 294 305 294 298 303 297 291 348 90 109 137 164 234 248 270 313 23 346 5 50 70 74 87 80 76 59 61 62 64 60 58 58 64 69 72
286 279 271 271 271 278 284 286 281 278 280 285 286 287 290 296 305 308 309 310 301 298 3 94 144 144 198 256 254 267 291 322 330 358 37 51 75 76 77 67 64 63 58 57 58 56 59 65 70
284 279 272 266 271 276 280 282 280 277 278 280 282 286 288 302 300 304 310 313 307 299 293 304 150 169 169 248 266 271 274 285 291 297 317 11 57 69 78 76 68 58 51 52 58 56 55 56 64
282 281 275 273 272 273 275 280 276 276 277 277 283 279 285 286 299 300 302 307 310 305 294 292 286 275 280 267 267 268 272 272 275 279 286 304 345 58 80 80 73 55 42 43 61 53 49 49 57
286 287 281 280 274 273 279 278 280 275 273 283 283 276 277 284 291 294 297 298 303 305 301 297 291 283 282 278 274 262 264 267 264 273 279 286 294 355 87 73 67 60 43 36 45 51 44 46 52
293 283 278 282 280 281 285 277 281 283 276 278 279 278 284 285 287 287 286 287 291 293 296 295 294 287 283 280 275 249 251 249 263 268 271 275 277 274 286 69 70 52 46 31 34 42 38 37 41
282 280 282 291 290 288 289 284 281 279 276 275 275 276 278 281 283 280 279 277 280 282 286 288 291 290 284 284 279 264 234 239 259 265 267 268 273 272 280 296 336 4 19 18 16 30 30 45 26
284 281 287 291 292 292 289 286 285 280 273 275 275 277 278 277 276 276 275 276 275 277 278 282 284 286 286 283 281 275 264 245 229 197 258 257 271 271 272 285 284 311 320 339 3 4 8 339 2
282 288 291 293 294 292 288 290 285 280 277 282 281 280 278 275 274 274 272 272 273 273 274 277 279 280 280 282 280 276 269 256 242 220 191 204 261 260 261 274 275 284 290 300 307 324 326 320 321
283 288 293 294 293 290 289 284 284 283 283 282 281 280 278 275 274 273 273 273 272 269 271 272 275 275 276 276 277 275 272 263 250 240 213 207 202 198 258 261 266 274 281 283 283 294 302 309 309
292 292 293 296 293 291 287 284 287 288 292 288 284 282 280 277 275 274 272 271 271 269 268 270 270 271 273 273 273 274 272 268 259 252 242 225 231 232 246 252 248 262 273 275 276 280 289 299 301
296 292 294 292 296 292 294 284 283 288 290 288 288 285 284 281 278 275 274 272 272 271 269 268 268 269 269 269 270 271 271 268 264 257 251 240 240 241 246 255 252 256 264 267 272 274 278 286 293
293 294 289 294 296 296 296 281 290 296 293 288 286 285 283 282 280 277 274 272 271 271 269 268 267 266 266 266 267 268 269 269 265 261 257 247 246 244 245 252 253 257 261 261 265 267 272 276 282
294 286 288 290 296 294 291 285 292 294 289 286 286 286 286 285 283 279 275 272 271 271 270 268 267 265 263 264 264 265 266 266 266 261 258 252 249 248 250 252 256 256 260 257 255 261 265 271 277
290 290 292 290 297 294 290 286 290 294 289 286 287 288 289 289 289 285 278 275 272 270 269 268 267 265 263 262 262 263 263 263 264 263 257 253 251 248 250 254 254 256 258 259 255 255 262 267 272
298 297 293 296 300 296 294 290 292 294 290 286 287 287 292 294 294 290 283 276 273 270 268 267 266 265 263 261 260 260 259 261 262 263 260 253 252 250 246 253 251 252 254 255 253 253 250 255 265
301 299 298 301 305 302 298 291 296 296 294 290 287 290 294 296 295 291 286 279 273 271 268 266 265 264 262 262 261 261 260 260 260 261 260 256 252 250 247 250 251 249 253 252 251 250 255 258 252
302 301 302 303 308 306 302 296 300 303 302 299 296 298 299 297 294 291 286 280 276 272 270 267 265 263 262 261 262 261 261 261 258 257 258 256 252 248 248 248 250 249 252 254 250 249 249 252 255
304 312 309 311 309 302 312 294 301 297 302 303 301 301 298 296 293 289 286 281 276 274 272 270 265 263 262 261 259 259 259 258 258 258 257 256 253 249 246 248 248 249 251 254 253 252 250 255 256
312 324 313 304 306 304 309 298 302 309 303 308 304 302 301 296 292 288 285 282 279 276 274 272 267 263 263 261 259 259 259 261 260 258 257 254 254 252 249 247 246 248 250 252 252 253 254 254 257
302 297 298 303 310 299 310 305 306 307 308 304 306 304 300 295 291 288 285 282 279 278 276 274 269 265 264 261 259 259 259 260 260 258 256 254 252 251 250 247 247 248 249 251 252 251 255 254 257
322 295 286 286 289 281 316 306 289 306 317 311 309 307 306 301 296 290 285 281 279 278 278 276 273 269 265 262 261 260 260 260 260 259 257 254 252 251 249 248 247 246 246 250 252 254 256 252 253
335 313 280 270 278 280 338 304 334 342 316 318 314 311 309 307 305 298 294 289 282 279 277 277 277 272 269 266 262 261 260 261 261 260 259 257 254 251 250 249 248 248 247 248 249 254 258 257 256
59 134 212 245 239 298 320 203 198 254 302 301 294 299 310 311 311 311 309 310 305 304 290 284 282 280 277 273 269 265 262 260 261 261 259 258 256 252 249 247 247 248 249 247 248 253 255 258 260
191 205 194 186 224 226 176 180 192 299 313 314 305 292 282 278 282 281 282 290 275 272 280 289 288 283 283 280 274 269 264 263 263 262 260 258 256 253 249 247 247 247 248 249 249 253 256 259 263
168 177 189 204 199 168 172 171 186 302 312 312 311 303 288 279 283 287 283 277 267 233 212 212 211 196 220 241 279 274 268 264 264 263 261 258 255 251 248 247 246 247 248 250 251 254 258 260 262
176 178 195 187 172 183 188 174 183 312 329 341 4 358 336 325 309 300 298 295 288 273 245 226 214 172 208 204 225 281 275 273 269 265 262 257 254 249 244 248 250 249 250 252 254 255 258 262 262